Location: Central Falls
(41.8900°N, 71.3929°W)
Time: 10:44:36
(UTC+00:00)

A-11 Canister half - Pass Details

Date: 15 December 2023
Orbit: 1512 x 1687 km, 47.2° (Epoch: 20 February)

Event Time Altitude Azimuth Distance (km) Brightness Sun altitude
Rises 08:11:54 0° 296° (WNW) 4,800 - -42.6°
Reaches altitude 10° 08:14:59 10° 294° (WNW) 3,836 - -42.0°
Maximum altitude 08:24:40 66° 216° (SW) 1,774 - -40.2°
Exits shadow 08:26:58 54° 164° (SSE) 1,959 9.4 -39.8°
Drops below altitude 10° 08:34:38 10° 136° (SE) 3,934 11.5 -38.4°
Sets 08:37:51 0° 134° (SE) 4,928 12.2 -37.8°
